Location: Evensen
(52.0063°N, 10.0037°E)
Time: 14:48:49
(UTC+00:00)

Daily predictions for brighter satellites

Satellite Brightness Start Highest point End
(mag) Time Altitude Azimuth Time Altitude Azimuth Time Altitude Azimuth
Cosmos 372 Rocket 4.1 15:37:43 10° NNW 15:42:53 54° ENE 15:48:01 10° SE
Cosmos 2322 Rocket 3.3 15:38:32 10° NNW 15:43:05 24° NE 15:47:36 10° E
Cosmos 1937 Rocket 3.5 15:38:56 10° NNW 15:44:18 79° ENE 15:49:37 10° SSE
SJ 16-02 4.2 15:41:16 10° NW 15:44:23 19° W 15:47:30 10° SW
Meteor PRIRODA 3.9 15:42:13 10° SE 15:45:40 45° ENE 15:49:09 10° N
Lacrosse 5 rocket 1.2 15:41:53 10° WNW 15:45:41 67° NNE 15:49:42 10° ESE
Cosmos 1980 Rocket 2.2 15:41:27 10° NNW 15:47:07 67° NE 15:52:44 10° SE
USA 234 3.3 15:41:01 10° ESE 15:47:32 73° NNE 15:54:03 10° WNW
YAOGAN 6 3.9 15:45:31 10° S 15:49:02 45° W 15:52:37 10° NNW
Cosmos 2026 Rocket 4.1 15:45:16 10° N 15:51:15 51° ENE 15:57:08 10° SSE
NOSS 2-2 (D) 4.4 15:47:12 10° NW 15:52:07 84° SW 15:59:05 10° SE
Cosmos 1666 Rocket 4.5 15:48:19 10° N 15:52:09 28° ENE 15:55:57 10° SE
Cosmos 1125 Rocket 4.5 15:48:58 10° N 15:53:21 26° NE 15:57:44 10° ESE
Cosmos 1271 Rocket 4.4 15:50:45 10° SW 15:54:23 33° WNW 15:58:03 10° N
Cosmos 1634 Rocket 4.5 15:50:19 10° SSE 15:56:08 40° E 16:01:58 10° NNE
Cosmos 2369 3.8 15:53:00 10° NNW 15:58:47 88° WSW 16:04:31 10° SSE
H-2A R/B 2.8 15:56:14 10° ESE 16:00:32 29° ENE 16:04:46 10° N
Cosmos 1812 4.0 16:00:09 10° SE 16:03:07 21° E 16:06:05 10° NE
Cosmos 2237 Rocket 4.2 16:02:19 10° NNW 16:03:55 11° N 16:05:30 10° NNE
ATLAS CENTAUR R/B 3.3 16:00:30 10° WNW 16:03:56 21° NNW 16:07:33 10° NNE
SL-16 R/B 2.8 15:58:55 10° NNW 16:04:05 34° NE 16:09:13 10° ESE
MOS 1 Rocket 3.9 15:59:39 10° N 16:04:35 63° WNW 16:09:10 10° SSW
USA 308 2.9 16:00:23 10° WNW 16:04:38 70° N 16:08:53 10° E
Cosmos 2221 3.2 16:01:17 10° SSW 16:05:31 57° WNW 16:09:49 10° N
Okean O Rocket 3.0 16:02:36 10° E 16:05:36 18° ENE 16:08:36 10° NNE
CZ-2C R/B 2.8 16:02:28 10° SSE 16:07:17 85° ENE 16:12:04 10° NNW
Sich 1 3.0 16:03:45 10° N 16:08:02 61° ENE 16:12:19 10° SSE
Cosmos 1500 Rocket 4.0 16:03:40 10° NNW 16:08:05 68° W 16:12:27 10° S
Cosmos 2082 Rocket 2.7 16:04:12 10° S 16:09:31 43° ESE 16:14:50 10° NE
Cosmos 540 Rocket 3.5 16:05:26 10° S 16:10:27 62° ESE 16:15:31 10° NNE
ARGOS 4.1 16:07:23 10° ESE 16:11:43 26° ENE 16:16:04 10° N
FengYun 1-2 T 4.2 16:09:32 10° SSE 16:15:05 76° ENE 16:20:37 10° NNW
COSMOS 2455 3.1 16:10:07 10° SSW 16:15:59 57° ESE 16:21:45 11° NE
SMAP 3.0 16:13:10 10° SSE 16:17:46 63° ENE 16:22:23 10° N
NOAA 6 4.0 16:14:12 10° SSE 16:19:16 66° ENE 16:24:22 10° N
Cosmos 1805 Rocket 3.6 16:16:13 10° NNW 16:20:34 82° W 16:24:54 10° S
Cosmos 2278 3.7 16:15:31 10° NNW 16:21:16 83° ENE 16:26:58 10° SSE
Cosmos 1933 3.3 16:18:42 10° S 16:22:44 82° E 16:26:47 10° NNE
Cosmos 1833 Rocket 2.8 16:17:08 10° SSW 16:22:46 83° WNW 16:28:27 10° NNE
Cosmos 2333 Rocket 3.6 16:18:58 10° NNW 16:23:10 20° NNE 16:26:02 14° ENE
Cosmos 1602 4.0 16:19:36 10° NNW 16:23:28 72° W 16:27:20 10° S
SL-16 R/B 4.3 16:24:04 10° NNW 16:25:47 11° N 16:27:29 10° NNE
CZ-4B DEB 4.2 16:23:01 10° SSE 16:28:27 64° ENE 16:33:53 10° N
USA 305 2.8 16:24:46 10° WNW 16:29:02 81° NNE 16:32:51 13° ESE
CZ-2C R/B 3.7 16:25:19 11° NE 16:29:04 23° E 16:33:06 10° SE
Cosmos 1655 Rocket 4.5 16:24:27 10° N 16:30:23 38° ENE 16:36:14 10° SE
Cosmos 2219 Rocket 3.6 16:27:19 10° NNW 16:31:16 19° NNE 16:33:20 16° NE
Cosmos 1356 Rocket 4.5 16:27:54 10° N 16:31:22 24° ENE 16:34:50 10° ESE
Cosmos 1500 3.2 16:30:01 10° NNW 16:33:46 82° W 16:37:29 10° S
CZ-4B R/B 3.5 16:30:00 10° S 16:33:50 57° WSW 16:37:32 10° NNW
Meteor 1-14 Rocket 4.3 16:28:06 10° N 16:33:57 70° ENE 16:39:53 10° SSE
Cosmos 44 Rocket 3.3 16:30:37 10° NW 16:35:37 89° NE 16:40:25 10° SE
Meteor 2-16 Rocket 4.4 16:32:02 10° N 16:38:10 67° ENE 16:44:16 10° SSE
COSMOS 2406 3.4 16:36:39 10° SW 16:42:24 78° WNW 16:48:00 11° NNE
Cosmos 1814 Rocket 4.1 16:38:14 10° S 16:43:20 57° ESE 16:47:38 14° NNE
Cosmos 921 Rocket 3.9 16:41:01 10° SSE 16:44:36 27° E 16:45:57 23° ENE
Cosmos 1570 Rocket 4.1 16:45:05 10° S 16:50:12 56° ESE 16:54:14 16° NE
MOS 1-B Rocket 4.4 16:44:45 10° NNE 16:50:33 48° E 16:57:07 10° S
Cosmos 2298 Rocket 4.0 16:48:48 10° NNW 16:54:08 69° ENE 16:59:27 10° SSE
Cosmos 371 Rocket 4.2 16:50:21 10° N 16:54:25 26° NE 16:55:07 25° ENE
CZ-4B R/B 3.1 16:49:17 10° SE 16:54:31 58° ENE 16:59:44 10° N
USA 267 3.5 16:50:26 20° ENE 16:55:03 57° SE 17:01:28 10° SW
CZ-2D R/B 3.1 16:52:58 10° SSE 16:56:47 81° ENE 17:00:37 10° NNW
MOS 1-B 4.3 16:53:38 10° SSE 16:59:24 80° ENE 17:05:14 10° NNW
ATLAS CENTAUR R/B 2.5 16:50:47 10° WSW 16:59:26 88° NNW 17:01:31 29° ENE
Cosmos 1939 Rocket 3.9 16:55:36 10° S 16:59:34 48° W 17:03:30 10° NNW
COSMO-SKYMED 1 3.2 16:59:10 28° ENE 17:00:32 34° E 17:04:30 10° SSE
Cosmos 1633 Rocket 3.0 16:56:18 10° NNW 17:00:42 87° W 17:05:06 10° S
USA 306 2.9 16:57:05 10° WNW 17:01:20 82° SSW 17:03:51 24° ESE
Cosmos 1666 2.9 16:58:46 10° NNW 17:02:29 70° W 17:06:11 10° S
Cosmos 1151 Rocket 2.9 16:58:17 10° S 17:02:36 78° E 17:06:59 10° NNE
Meteor 1-27 Rocket 4.4 16:58:20 10° SE 17:02:58 28° E 17:04:01 27° ENE
Cosmos 1782 3.5 17:00:52 10° SSW 17:04:46 54° WNW 17:08:42 10° N
APEX 4.2 17:01:58 10° S 17:04:23 24° SE 17:04:23 24° SE
Cosmos 2360 Rocket 2.5 16:59:46 10° NNW 17:05:10 42° NE 17:08:17 23° ESE
Meteor 2-6 Rocket 4.2 17:00:08 10° S 17:05:42 61° E 17:11:11 10° NNE
ISS -0.4 17:05:06 10° WSW 17:06:12 11° SW 17:07:20 10° SSW
SeaSat 1 4.2 17:02:52 10° NNE 17:06:54 26° NW 17:10:55 10° W
SJ-11-01 4.3 17:02:43 10° SSE 17:07:21 57° ENE 17:12:01 10° N
Cosmos 2237 4.3 17:02:51 10° NNW 17:08:31 56° NE 17:13:44 12° SE
PAYLOAD B 4.3 17:03:52 10° SSE 17:09:29 83° WSW 17:15:08 10° NNW
Cosmos 1900 4.3 17:04:52 10° SSW 17:09:41 63° SE 17:11:53 31° NE
YAOGAN 1 3.5 17:11:21 28° NE 17:11:21 28° NE 17:14:09 10° N
Cosmos 1818 4.2 17:05:40 10° NW 17:11:03 57° SW 17:16:22 10° SSE
Cosmos 1536 3.8 17:14:06 10° N 17:16:30 29° NNE 17:16:30 29° NNE
ATLAS 5 CENTAUR R/B 2.1 17:10:28 10° NW 17:18:18 87° SW 17:19:38 34° SE
Cosmos 2279 Rocket 4.0 17:12:33 10° S 17:18:46 88° W 17:25:01 10° N
Cosmos 2266 Rocket 3.9 17:13:19 10° N 17:19:44 72° ENE 17:26:09 10° SSE
Cosmos 841 Rocket 4.2 17:15:09 10° SW 17:20:12 52° WNW 17:24:31 14° NNE
Meteor 2-15 4.4 17:15:05 10° S 17:21:06 65° E 17:27:08 10° NNE
ERBS 3.1 17:18:06 10° WNW 17:20:46 35° N 17:20:46 35° N
USA 307 3.0 17:17:38 10° WNW 17:21:54 72° SSW 17:23:33 35° SE
CZ-4C R/B 4.0 17:15:07 10° NW 17:21:57 47° WSW 17:29:50 10° SSE
Lacrosse 5 rocket 2.9 17:21:06 10° WNW 17:24:36 32° SW 17:28:19 10° SSE
SL-08 RB Rocket 3.7 17:21:30 10° SSE 17:26:01 59° ENE 17:30:33 10° N
NOSS 3-4 (A) 4.0 17:19:50 10° NW 17:26:12 47° NNE 17:28:52 33° ENE
NOSS 3-4 (C) 4.1 17:19:56 10° NW 17:26:17 47° NNE 17:28:56 33° ENE
Cosmos 1933 Rocket 3.4 17:23:29 10° N 17:27:51 69° ENE 17:32:10 10° SSE
Cosmos 2322 Rocket 2.1 17:22:16 10° NNW 17:28:00 82° ENE 17:33:44 10° SSE
ATLAS 2AS CENTAUR R/B 3.6 17:21:58 10° NW 17:28:53 36° NNE 17:31:18 29° NE
COSMOS 2428 3.7 17:24:02 10° NNW 17:28:43 28° NE 17:28:43 28° NE
Cosmos 2208 Rocket 4.0 17:24:05 10° SSW 17:29:31 90° SE 17:32:51 25° NNE
Cosmos 2150 Rocket 4.2 17:24:31 10° NNW 17:29:42 71° WSW 17:34:54 10° SSE
Cosmos 1980 Rocket 4.4 17:26:05 10° NW 17:30:41 26° WSW 17:35:14 10° SSW
USA 234 3.8 17:24:18 10° SE 17:30:43 57° SW 17:37:10 10° WNW
Cosmos 1328 Rocket 3.7 17:28:16 10° SSW 17:32:43 75° W 17:36:01 18° N
Cosmos 1470 Rocket 3.9 17:29:25 10° NNW 17:33:52 69° W 17:38:19 10° S
Cosmos 1544 3.1 17:30:24 10° NNW 17:34:01 78° W 17:37:39 10° S
Cosmos 1125 Rocket 3.8 17:30:42 10° NNW 17:35:55 69° WSW 17:41:09 10° SSE
Cosmos 1867 4.1 17:33:36 10° S 17:38:27 38° ESE 17:38:27 38° ESE
Cosmos 1812 4.1 17:35:01 10° SW 17:38:38 38° WNW 17:41:44 13° N
X-37B 3.3 17:37:27 10° SSW 17:37:49 11° S 17:37:49 11° S
H-2A R/B 2.8 17:34:49 10° S 17:39:46 51° W 17:44:39 10° NNW
Meteor 1-11 Rocket 3.7 17:35:21 10° NNW 17:41:01 87° W 17:46:47 10° S
Okean O Rocket 1.7 17:37:00 10° S 17:41:27 76° WSW 17:45:56 10° NNW
Meteor 1-10 Rocket 4.1 17:37:06 10° S 17:42:51 85° E 17:47:11 18° NNE
GEOS 3 Rocket 3.6 17:41:55 51° E 17:42:51 59° NE 17:47:56 10° NW
Cosmos 2322 4.2 17:37:48 10° NNW 17:42:44 38° NE 17:42:44 38° NE
ATLAS CENTAUR R/B 3.6 17:41:13 10° NW 17:44:13 18° N 17:44:13 18° N
USA 308 3.3 17:40:21 10° WNW 17:44:32 57° SSW 17:45:21 47° SSE
USA 32 3.9 17:39:38 10° S 17:44:47 64° E 17:46:22 43° NNE
SL-16 R/B 2.7 17:42:56 10° NW 17:48:32 59° WSW 17:54:04 10° SSE
SKYMED 2 3.5 17:47:47 54° N 17:48:46 86° WNW 17:53:07 10° SSW
Cosmos 2237 Rocket 3.9 17:46:17 10° NNW 17:49:04 19° NNE 17:49:04 19° NNE
IRS-1C Rocket 4.5 17:51:33 45° NNE 17:51:33 45° NNE 17:55:40 10° N
ARGOS 3.5 17:46:13 10° S 17:51:35 67° WSW 17:56:59 10° NNW
Cosmos 2082 Rocket 3.2 17:48:15 10° WSW 17:53:38 43° NW 17:56:57 22° NNE
CZ-4 R/B 3.8 17:58:56 14° N 17:58:56 14° N 17:59:29 10° NNW
COSMOS 2455 3.8 17:56:28 10° WSW 18:02:11 42° NW 18:04:54 27° NNE
Feng Yun 1-1 Rocket 4.4 18:00:32 10° SSE 18:06:27 77° WSW 18:12:18 10° NNW
Cosmos 2333 Rocket 2.3 18:02:54 10° NNW 18:08:05 59° NNE 18:08:05 59° NNE
USA 305 4.0 18:04:45 10° WNW 18:08:43 39° SW 18:08:52 38° SSW
CZ-2C R/B 2.9 18:06:50 25° N 18:09:49 63° WNW 18:14:55 10° SSW
SL-16 R/B 4.3 18:09:14 10° NNW 18:11:02 14° N 18:11:02 14° N
Cosmos 2219 Rocket 2.7 18:10:51 10° NNW 18:15:05 45° N 18:15:05 45° N
Aureole 3 Rocket 3.8 18:14:16 10° SSW 18:19:06 80° WNW 18:26:04 10° N
Cosmos 1515 Rocket 4.5 18:15:40 10° SSW 18:19:56 47° WNW 18:20:27 45° NW
Cosmos 921 Rocket 4.2 18:18:46 10° SW 18:22:44 38° WNW 18:22:47 38° WNW
Nadezhda 2 Rocket 4.4 18:16:47 10° N 18:23:16 84° ENE 18:24:23 63° SSE
Cosmos 371 Rocket 4.3 18:30:26 10° NNW 18:33:50 42° NW 18:33:50 42° NW
Cosmos 2333 4.5 18:30:39 10° NNW 18:35:33 64° NW 18:35:33 64° NW
COSMO-SKYMED 1 4.1 18:36:23 32° WNW 18:36:40 33° WNW 18:40:33 10° SW
USA 267 3.2 18:37:47 70° NNE 18:38:15 73° NNW 18:44:46 10° WSW
Meteor 1-27 Rocket 4.3 18:40:39 10° SSW 18:46:02 52° WNW 18:46:30 50° NW
Cosmos 2360 Rocket 3.1 18:43:52 10° NW 18:49:14 44° WSW 18:50:08 41° SW
Cosmos 2322 Rocket 4.5 19:07:18 10° NW 19:11:24 21° W 19:15:30 10° SSW
COSMOS 2428 4.3 19:08:05 10° NNW 19:10:45 29° NW 19:10:45 29° NW
NOSS 3-4 (A) 4.2 19:10:44 10° NW 19:16:19 59° WNW 19:16:19 59° WNW
NOSS 3-4 (C) 4.2 19:10:50 10° NW 19:16:23 59° WNW 19:16:23 59° WNW
ATLAS 2AS CENTAUR R/B 3.5 19:13:38 10° NW 19:18:44 45° NNW 19:18:44 45° NNW
Cosmos 2333 Rocket 4.4 19:47:42 10° NW 19:50:07 21° WNW 19:50:07 21° WNW
